NOAA NWS Hourly Roundups by Site

Regional Weather Roundup for Norman, OK

To Select Another Site Choose from List

Select Site:  

000
ASUS44 KOUN 220810
RWROK

WEATHER ROUNDUP FOR OKLAHOMA
NATIONAL WEATHER SERVICE NORMAN OK
200 AM CST SAT JAN 22 2022

NOTE: "FAIR" INDICATES FEW OR NO CLOUDS BELOW 12,000 FEET WITH NO
      SIGNIFICANT WEATHER AND/OR OBSTRUCTIONS TO VISIBILITY.

OKZ001>007-009>012-014-015-017-220900-
NORTHWEST OKLAHOMA AND THE PANHANDLE

CITY           SKY/WX    TMP DP  RH WIND       PRES   REMARKS
GAGE           PTCLDY    23   4  44 SW6       30.37R WCI  16
GUYMON         CLOUDY    33  24  69 CALM      30.32R
ENID/WOODRING  PTCLDY    23   5  46 SE5       30.41S WCI  17
$$

OKZ016-021>023-033>039-044-045-220900-
SOUTHWEST OKLAHOMA

CITY           SKY/WX    TMP DP  RH WIND       PRES   REMARKS
LAWTON/REGL    CLEAR     15   7  70 CALM      30.42S
LAWTON/FT SILL CLEAR     20   7  56 N6        30.40S WCI  13
FREDERICK      CLEAR     23   5  46 NE9       30.37S WCI  13
CLINTON        PTCLDY    21   3  45 S3        30.39R
HOBART         PTCLDY    21   3  45 E6        30.41R WCI  13
ALTUS AFB      PTCLDY    20   5  53 N6        30.39R WCI  12
$$

OKZ018>020-024>031-220900-
CENTRAL OKLAHOMA

CITY           SKY/WX    TMP DP  RH WIND       PRES   REMARKS
OKLAHOMA CITY  MOCLDY    25   6  44 CALM      30.41S
OKC/WILEY POST PTCLDY    27   8  44 S5        30.41S WCI  22
OKC/TINKER AFB PTCLDY    27   6  41 CALM      30.40R
STILLWATER     PTCLDY    25   9  50 CALM      30.43R
GUTHRIE        PTCLDY    24   9  52 S5        30.42S WCI  18
$$

OKZ008-013-054>072-220900-
NORTHEAST OKLAHOMA

CITY           SKY/WX    TMP DP  RH WIND       PRES   REMARKS
TULSA          PTCLDY    23  11  60 CALM      30.45R
TULSA/JONES    CLEAR     20  12  71 CALM      30.46S
PONCA CITY     PTCLDY    27   7  42 S3        30.43R
BARTLESVILLE   CLEAR     16  10  77 CALM      30.46R
MUSKOGEE       CLEAR     22   7  52 S7        30.48R WCI  13
$$

OKZ032-040>043-046>053-073>077-220900-
SOUTH CENTRAL/SOUTHEAST OKLAHOMA

CITY           SKY/WX    TMP DP  RH WIND       PRES   REMARKS
ARDMORE/DWNTWN CLEAR     22  10  58 N3        30.43S
MCALESTER      CLEAR     20  10  65 CALM      30.44S
$$



 

View Past Reports for Norman, OK.

Products Courtesy of NOAA-NWS
NWS Information Parsing Script by Ken True at Saratoga Weather - Script by SE Lincoln Weather.